When you browse on this site, cookies collect data to enhance your experience and personalize the content and advertising you see.
Visit our Privacy Policy to learn more. By continuing to use the site, you agree to this use of cookies and data.
  • în România
  • Lista ţărilor
  • Pe 7 zile
  • Temperatura apei
  • Hartă satelitară
  • Meteo pe hartă
  • Widget-uri
  • user-avatar
    Intrare

    Meteo pe oră la Trujillo

    Astăzi, 24 Mai, Vineri

    Timp Temperatura Precipitaţii Vânt Presiune Umiditate
    00:00 +26°C° 0 mm 4 m/s 759 mmHg 96%
    01:00 +26°C° 0 mm 4 m/s 759 mmHg 96%
    02:00 +25°C° 0 mm 4 m/s 758 mmHg 96%
    03:00 +25°C° 0 mm 4 m/s 758 mmHg 95%
    04:00 +26°C° 0 mm 4 m/s 758 mmHg 95%
    05:00 +26°C° 0 mm 4 m/s 758 mmHg 94%
    06:00 +26°C° 0 mm 3 m/s 758 mmHg 93%
    07:00 +28°C° 0.1 mm 4 m/s 759 mmHg 83%
    08:00 +30°C° 0.1 mm 4 m/s 759 mmHg 74%
    09:00 +33°C° 0.1 mm 4 m/s 759 mmHg 65%
    10:00 +34°C° 0.2 mm 4 m/s 759 mmHg 63%
    11:00 +34°C° 0.2 mm 5 m/s 759 mmHg 60%
    12:00 +35°C° 0.2 mm 5 m/s 758 mmHg 58%
    13:00 +34°C° 0.3 mm 5 m/s 758 mmHg 62%
    14:00 +34°C° 0.3 mm 5 m/s 758 mmHg 67%
    15:00 +33°C° 0.3 mm 6 m/s 757 mmHg 71%
    16:00 +30°C° 0.3 mm 5 m/s 757 mmHg 76%
    17:00 +29°C° 0.3 mm 5 m/s 758 mmHg 82%
    18:00 +28°C° 0.3 mm 5 m/s 758 mmHg 88%
    19:00 +27°C° 0 mm 5 m/s 758 mmHg 89%
    20:00 +27°C° 0 mm 4 m/s 759 mmHg 91%
    21:00 +26°C° 0 mm 4 m/s 759 mmHg 92%
    22:00 +26°C° 0 mm 4 m/s 759 mmHg 92%
    23:00 +26°C° 0 mm 3 m/s 759 mmHg 93%

    Mâine, 25 Mai, Sâmbătă

    Timp Temperatura Precipitaţii Vânt Presiune Umiditate
    00:00 +26°C° 0 mm 3 m/s 759 mmHg 93%
    01:00 +26°C° 0 mm 3 m/s 759 mmHg 93%
    02:00 +25°C° 0 mm 2 m/s 758 mmHg 93%
    03:00 +25°C° 0 mm 2 m/s 758 mmHg 93%
    04:00 +25°C° 0 mm 2 m/s 758 mmHg 92%
    05:00 +26°C° 0 mm 2 m/s 758 mmHg 91%
    06:00 +26°C° 0 mm 2 m/s 758 mmHg 89%
    07:00 +28°C° 0 mm 2 m/s 759 mmHg 78%
    08:00 +31°C° 0 mm 2 m/s 759 mmHg 67%
    09:00 +34°C° 0 mm 2 m/s 759 mmHg 56%
    10:00 +35°C° 0 mm 3 m/s 759 mmHg 54%
    11:00 +35°C° 0 mm 3 m/s 759 mmHg 53%
    12:00 +36°C° 0 mm 4 m/s 758 mmHg 51%
    13:00 +35°C° 0.2 mm 4 m/s 758 mmHg 57%
    14:00 +34°C° 0.2 mm 4 m/s 757 mmHg 62%
    15:00 +33°C° 0.2 mm 4 m/s 757 mmHg 68%
    16:00 +32°C° 0.2 mm 4 m/s 757 mmHg 74%
    17:00 +29°C° 0.2 mm 4 m/s 757 mmHg 80%
    18:00 +28°C° 0.2 mm 4 m/s 758 mmHg 86%
    19:00 +28°C° 0.3 mm 3 m/s 758 mmHg 88%
    20:00 +27°C° 0.3 mm 3 m/s 759 mmHg 90%
    21:00 +26°C° 0.3 mm 3 m/s 759 mmHg 92%
    22:00 +26°C° 0 mm 3 m/s 759 mmHg 93%
    23:00 +26°C° 0 mm 2 m/s 759 mmHg 93%

    Poimâine, 26 Mai, Duminică

    Timp Temperatura Precipitaţii Vânt Presiune Umiditate
    00:00 +26°C° 0 mm 2 m/s 759 mmHg 93%
    01:00 +26°C° 0 mm 2 m/s 759 mmHg 93%
    02:00 +25°C° 0 mm 2 m/s 758 mmHg 93%
    03:00 +25°C° 0 mm 2 m/s 758 mmHg 93%
    04:00 +26°C° 0 mm 1 m/s 758 mmHg 92%
    05:00 +26°C° 0 mm 1 m/s 758 mmHg 90%
    06:00 +26°C° 0 mm 1 m/s 758 mmHg 89%
    07:00 +28°C° 0 mm 1 m/s 759 mmHg 79%
    08:00 +30°C° 0 mm 1 m/s 759 mmHg 69%
    09:00 +32°C° 0 mm 1 m/s 759 mmHg 59%
    10:00 +34°C° 0 mm 2 m/s 759 mmHg 57%
    11:00 +35°C° 0 mm 2 m/s 759 mmHg 55%
    12:00 +35°C° 0 mm 3 m/s 759 mmHg 53%
    13:00 +34°C° 0.6 mm 3 m/s 758 mmHg 60%
    14:00 +33°C° 0.6 mm 3 m/s 758 mmHg 67%
    15:00 +30°C° 0.6 mm 3 m/s 757 mmHg 73%
    16:00 +29°C° 0.3 mm 3 m/s 757 mmHg 78%
    17:00 +28°C° 0.3 mm 3 m/s 758 mmHg 83%
    18:00 +28°C° 0.3 mm 3 m/s 758 mmHg 87%
    19:00 +27°C° 0.4 mm 2 m/s 758 mmHg 89%
    20:00 +27°C° 0.4 mm 2 m/s 759 mmHg 90%
    21:00 +26°C° 0.4 mm 1 m/s 759 mmHg 92%
    22:00 +26°C° 0.1 mm 1 m/s 759 mmHg 92%
    23:00 +26°C° 0.1 mm 1 m/s 759 mmHg 92%

    27 Mai, Luni

    Timp Temperatura Precipitaţii Vânt Presiune Umiditate
    00:00 +26°C° 0.1 mm 1 m/s 759 mmHg 92%
    01:00 +26°C° 0 mm 1 m/s 758 mmHg 92%
    02:00 +24°C° 0 mm 0 m/s 758 mmHg 92%
    03:00 +24°C° 0 mm 0 m/s 757 mmHg 92%
    04:00 +26°C° 0.1 mm 1 m/s 757 mmHg 91%
    05:00 +26°C° 0.1 mm 1 m/s 757 mmHg 90%
    06:00 +26°C° 0.1 mm 1 m/s 758 mmHg 89%
    07:00 +28°C° 0 mm 1 m/s 758 mmHg 80%
    08:00 +30°C° 0 mm 1 m/s 758 mmHg 72%
    09:00 +32°C° 0 mm 1 m/s 759 mmHg 63%
    10:00 +32°C° 0.2 mm 1 m/s 758 mmHg 64%
    11:00 +32°C° 0.2 mm 2 m/s 758 mmHg 66%
    12:00 +32°C° 0.2 mm 2 m/s 757 mmHg 67%
    13:00 +31°C° 1 mm 2 m/s 757 mmHg 72%
    14:00 +30°C° 1 mm 2 m/s 756 mmHg 78%
    15:00 +30°C° 1 mm 2 m/s 756 mmHg 83%
    16:00 +29°C° 0.4 mm 2 m/s 756 mmHg 86%
    17:00 +28°C° 0.4 mm 2 m/s 756 mmHg 90%
    18:00 +27°C° 0.4 mm 2 m/s 757 mmHg 93%
    19:00 +27°C° 0 mm 1 m/s 757 mmHg 94%
    20:00 +26°C° 0 mm 1 m/s 757 mmHg 95%
    21:00 +26°C° 0 mm 1 m/s 758 mmHg 96%
    22:00 +26°C° 0 mm 1 m/s 758 mmHg 96%
    23:00 +25°C° 0 mm 1 m/s 757 mmHg 96%

    28 Mai, Marţi

    Timp Temperatura Precipitaţii Vânt Presiune Umiditate
    00:00 +25°C° 0 mm 1 m/s 757 mmHg 96%
    01:00 +25°C° 0.1 mm 1 m/s 756 mmHg 95%
    02:00 +25°C° 0.1 mm 1 m/s 756 mmHg 95%
    03:00 +25°C° 0.1 mm 2 m/s 756 mmHg 95%
    04:00 +25°C° 0.1 mm 2 m/s 756 mmHg 94%
    05:00 +25°C° 0.1 mm 2 m/s 756 mmHg 93%
    06:00 +26°C° 0.1 mm 2 m/s 756 mmHg 92%
    07:00 +28°C° 0.1 mm 2 m/s 756 mmHg 82%
    08:00 +30°C° 0.1 mm 2 m/s 757 mmHg 73%
    09:00 +32°C° 0.1 mm 2 m/s 757 mmHg 63%
    10:00 +32°C° 0.6 mm 2 m/s 756 mmHg 64%
    11:00 +33°C° 0.6 mm 3 m/s 756 mmHg 66%
    12:00 +34°C° 0.6 mm 3 m/s 755 mmHg 68%
    13:00 +33°C° 1.2 mm 3 m/s 755 mmHg 73%
    14:00 +31°C° 1.2 mm 3 m/s 754 mmHg 78%
    15:00 +30°C° 1.2 mm 2 m/s 754 mmHg 83%
    16:00 +29°C° 0.4 mm 2 m/s 754 mmHg 86%
    17:00 +29°C° 0.4 mm 1 m/s 755 mmHg 89%
    18:00 +26°C° 0.4 mm 0 m/s 755 mmHg 93%
    19:00 +25°C° 0 mm 0 m/s 755 mmHg 94%
    20:00 +27°C° 0 mm 1 m/s 756 mmHg 95%
    21:00 +26°C° 0 mm 1 m/s 756 mmHg 96%
    22:00 +26°C° 0 mm 1 m/s 756 mmHg 96%
    23:00 +26°C° 0 mm 1 m/s 756 mmHg 96%

    29 Mai, Miercuri

    Timp Temperatura Precipitaţii Vânt Presiune Umiditate
    00:00 +26°C° 0 mm 1 m/s 756 mmHg 95%
    01:00 +26°C° 0 mm 1 m/s 755 mmHg 95%
    02:00 +26°C° 0 mm 1 m/s 755 mmHg 95%
    03:00 +25°C° 0 mm 1 m/s 754 mmHg 94%
    04:00 +26°C° 0 mm 1 m/s 755 mmHg 93%
    05:00 +26°C° 0 mm 1 m/s 755 mmHg 92%
    06:00 +26°C° 0 mm 1 m/s 755 mmHg 91%
    07:00 +27°C° 0 mm 0 m/s 756 mmHg 79%
    08:00 +30°C° 0 mm 0 m/s 756 mmHg 68%
    09:00 +32°C° 0 mm 0 m/s 756 mmHg 57%
    10:00 +35°C° 0 mm 1 m/s 756 mmHg 55%
    11:00 +36°C° 0 mm 2 m/s 755 mmHg 54%
    12:00 +36°C° 0 mm 3 m/s 755 mmHg 52%
    13:00 +35°C° 0 mm 3 m/s 754 mmHg 57%
    14:00 +35°C° 0 mm 2 m/s 754 mmHg 61%
    15:00 +34°C° 0 mm 2 m/s 754 mmHg 66%
    16:00 +31°C° 0 mm 2 m/s 754 mmHg 73%
    17:00 +30°C° 0 mm 1 m/s 754 mmHg 79%
    18:00 +29°C° 0 mm 1 m/s 755 mmHg 86%
    19:00 +28°C° 0 mm 1 m/s 755 mmHg 88%
    20:00 +26°C° 0 mm 0 m/s 756 mmHg 90%
    21:00 +26°C° 0 mm 0 m/s 756 mmHg 92%
    22:00 +27°C° 0 mm 1 m/s 756 mmHg 92%
    23:00 +27°C° 0 mm 1 m/s 756 mmHg 92%
    Arată mai mult